Location: Oriwa
(40.7500°S, 175.3333°E)
Time: 12:28:44
(UTC+00:00)

USA 229 DEB - Pass Details

Date: 03 February 2023
Orbit: 916 x 1296 km, 63.4° (Epoch: 28 March)

Event Time Altitude Azimuth Distance (km) Brightness Sun altitude
Rises 13:54:11 0° 218° (SW) 3,844 7.0 -29.7°
Reaches altitude 10° 13:56:57 10° 221° (SW) 2,832 6.2 -29.5°
Enters shadow 14:02:00 48° 253° (WSW) 1,260 3.9 -29.1°
